When you browse on this site, cookies collect data to enhance your experience and personalize the content and advertising you see.
Visit our Privacy Policy to learn more. By continuing to use the site, you agree to this use of cookies and data.
EN

Hourly Weather Yasynets'

Today, 9 August, Sunday

Time Temperature Precipitation Wind Pressure Humidity
00:00 +20°C° 0 mm 1 mps 752 mmHg 91%
01:00 +20°C° 0 mm 1 mps 752 mmHg 92%
02:00 +20°C° 0 mm 1 mps 752 mmHg 93%
03:00 +20°C° 0.1 mm 1 mps 752 mmHg 93%
04:00 +19°C° 0.1 mm 1 mps 752 mmHg 94%
05:00 +19°C° 0.1 mm 1 mps 752 mmHg 95%
06:00 +21°C° 0 mm 1 mps 752 mmHg 90%
07:00 +22°C° 0 mm 1 mps 752 mmHg 86%
08:00 +24°C° 0 mm 1 mps 752 mmHg 79%
09:00 +25°C° 0 mm 1 mps 752 mmHg 72%
10:00 +26°C° 0 mm 2 mps 752 mmHg 66%
11:00 +27°C° 0 mm 2 mps 752 mmHg 59%
12:00 +28°C° 0 mm 2 mps 751 mmHg 57%
13:00 +28°C° 0 mm 2 mps 751 mmHg 56%
14:00 +28°C° 0 mm 2 mps 751 mmHg 54%
15:00 +28°C° 0.1 mm 2 mps 750 mmHg 56%
16:00 +28°C° 0.1 mm 2 mps 750 mmHg 58%
17:00 +28°C° 0.1 mm 2 mps 750 mmHg 61%
18:00 +26°C° 0.2 mm 2 mps 750 mmHg 68%
19:00 +24°C° 0.2 mm 1 mps 750 mmHg 75%
20:00 +22°C° 0.2 mm 1 mps 750 mmHg 82%
21:00 +21°C° 0.6 mm 1 mps 750 mmHg 85%
22:00 +21°C° 0.6 mm 1 mps 750 mmHg 87%
23:00 +20°C° 0.6 mm 1 mps 750 mmHg 90%

Tomorrow, 10 August, Monday

Time Temperature Precipitation Wind Pressure Humidity
00:00 +20°C° 0.3 mm 1 mps 750 mmHg 91%
01:00 +19°C° 0.3 mm 1 mps 750 mmHg 92%
02:00 +19°C° 0.3 mm 1 mps 750 mmHg 93%
03:00 +19°C° 0 mm 1 mps 750 mmHg 94%
04:00 +18°C° 0 mm 1 mps 750 mmHg 94%
05:00 +18°C° 0 mm 1 mps 749 mmHg 95%
06:00 +19°C° 0 mm 1 mps 750 mmHg 91%
07:00 +20°C° 0 mm 2 mps 750 mmHg 86%
08:00 +21°C° 0 mm 2 mps 750 mmHg 82%
09:00 +24°C° 0 mm 2 mps 750 mmHg 74%
10:00 +25°C° 0 mm 2 mps 750 mmHg 66%
11:00 +27°C° 0 mm 2 mps 750 mmHg 59%
12:00 +27°C° 0 mm 2 mps 750 mmHg 56%
13:00 +28°C° 0 mm 2 mps 750 mmHg 54%
14:00 +29°C° 0 mm 3 mps 749 mmHg 51%
15:00 +28°C° 0.2 mm 3 mps 749 mmHg 54%
16:00 +28°C° 0.2 mm 2 mps 749 mmHg 58%
17:00 +27°C° 0.2 mm 2 mps 749 mmHg 61%
18:00 +26°C° 0.2 mm 2 mps 749 mmHg 68%
19:00 +24°C° 0.2 mm 2 mps 749 mmHg 75%
20:00 +22°C° 0.2 mm 1 mps 749 mmHg 82%
21:00 +22°C° 0.2 mm 1 mps 749 mmHg 84%
22:00 +21°C° 0.2 mm 1 mps 750 mmHg 86%
23:00 +20°C° 0.2 mm 1 mps 750 mmHg 88%

Day after tomorrow, 11 August, Tuesday

Time Temperature Precipitation Wind Pressure Humidity
00:00 +20°C° 0.1 mm 1 mps 750 mmHg 89%
01:00 +20°C° 0.1 mm 1 mps 750 mmHg 90%
02:00 +19°C° 0.1 mm 1 mps 750 mmHg 92%
03:00 +19°C° 0 mm 1 mps 750 mmHg 92%
04:00 +19°C° 0 mm 1 mps 750 mmHg 92%
05:00 +19°C° 0 mm 1 mps 750 mmHg 93%
06:00 +20°C° 0 mm 1 mps 750 mmHg 88%
07:00 +21°C° 0 mm 1 mps 750 mmHg 84%
08:00 +23°C° 0 mm 1 mps 750 mmHg 79%
09:00 +24°C° 0.5 mm 2 mps 750 mmHg 74%
10:00 +25°C° 0.5 mm 2 mps 750 mmHg 69%
11:00 +27°C° 0.5 mm 2 mps 750 mmHg 64%
12:00 +27°C° 0.7 mm 2 mps 750 mmHg 64%
13:00 +27°C° 0.7 mm 3 mps 750 mmHg 64%
14:00 +27°C° 0.7 mm 4 mps 750 mmHg 64%
15:00 +26°C° 0.3 mm 4 mps 750 mmHg 66%
16:00 +26°C° 0.3 mm 4 mps 750 mmHg 68%
17:00 +25°C° 0.3 mm 4 mps 750 mmHg 70%
18:00 +24°C° 0.2 mm 3 mps 750 mmHg 74%
19:00 +21°C° 0.2 mm 3 mps 750 mmHg 77%
20:00 +20°C° 0.2 mm 3 mps 750 mmHg 81%
21:00 +18°C° 0 mm 3 mps 751 mmHg 82%
22:00 +17°C° 0 mm 3 mps 751 mmHg 83%
23:00 +16°C° 0 mm 3 mps 751 mmHg 84%

12 August, Wednesday

Time Temperature Precipitation Wind Pressure Humidity
00:00 +16°C° 0 mm 3 mps 751 mmHg 86%
01:00 +14°C° 0 mm 3 mps 751 mmHg 88%
02:00 +14°C° 0 mm 2 mps 751 mmHg 90%
03:00 +14°C° 0 mm 2 mps 752 mmHg 91%
04:00 +13°C° 0 mm 2 mps 752 mmHg 92%
05:00 +13°C° 0 mm 2 mps 752 mmHg 93%
06:00 +14°C° 0 mm 2 mps 752 mmHg 87%
07:00 +16°C° 0 mm 2 mps 752 mmHg 80%
08:00 +17°C° 0 mm 2 mps 753 mmHg 73%
09:00 +18°C° 0 mm 2 mps 753 mmHg 66%
10:00 +19°C° 0 mm 3 mps 753 mmHg 60%
11:00 +21°C° 0 mm 3 mps 753 mmHg 53%
12:00 +21°C° 0 mm 3 mps 753 mmHg 52%
13:00 +22°C° 0 mm 3 mps 753 mmHg 51%
14:00 +22°C° 0 mm 3 mps 753 mmHg 50%
15:00 +22°C° 0 mm 3 mps 753 mmHg 52%
16:00 +21°C° 0 mm 3 mps 752 mmHg 54%
17:00 +21°C° 0 mm 3 mps 752 mmHg 56%
18:00 +19°C° 0 mm 2 mps 752 mmHg 61%
19:00 +18°C° 0 mm 2 mps 752 mmHg 67%
20:00 +16°C° 0 mm 1 mps 752 mmHg 73%
21:00 +15°C° 0 mm 1 mps 753 mmHg 76%
22:00 +15°C° 0 mm 1 mps 753 mmHg 79%
23:00 +14°C° 0 mm 1 mps 753 mmHg 82%

13 August, Thursday

Time Temperature Precipitation Wind Pressure Humidity
00:00 +13°C° 0 mm 1 mps 753 mmHg 84%
01:00 +13°C° 0 mm 1 mps 753 mmHg 86%
02:00 +12°C° 0 mm 1 mps 753 mmHg 87%
03:00 +12°C° 0 mm 1 mps 753 mmHg 87%
04:00 +12°C° 0 mm 1 mps 753 mmHg 87%
05:00 +12°C° 0 mm 1 mps 753 mmHg 87%
06:00 +13°C° 0 mm 1 mps 753 mmHg 81%
07:00 +15°C° 0 mm 1 mps 753 mmHg 75%
08:00 +16°C° 0 mm 1 mps 753 mmHg 70%
09:00 +17°C° 0 mm 2 mps 753 mmHg 65%
10:00 +19°C° 0 mm 2 mps 753 mmHg 59%
11:00 +20°C° 0 mm 2 mps 753 mmHg 54%
12:00 +20°C° 0 mm 2 mps 752 mmHg 53%
13:00 +21°C° 0 mm 2 mps 752 mmHg 53%
14:00 +21°C° 0 mm 2 mps 752 mmHg 52%
15:00 +21°C° 0 mm 3 mps 752 mmHg 53%
16:00 +20°C° 0 mm 3 mps 752 mmHg 55%
17:00 +20°C° 0 mm 3 mps 752 mmHg 57%
18:00 +18°C° 0 mm 2 mps 752 mmHg 63%
19:00 +17°C° 0 mm 2 mps 752 mmHg 69%
20:00 +15°C° 0 mm 2 mps 752 mmHg 75%
21:00 +14°C° 0 mm 2 mps 752 mmHg 77%
22:00 +13°C° 0 mm 1 mps 752 mmHg 79%
23:00 +13°C° 0 mm 1 mps 752 mmHg 80%

14 August, Friday

Time Temperature Precipitation Wind Pressure Humidity
00:00 +12°C° 0 mm 1 mps 752 mmHg 82%
01:00 +12°C° 0 mm 1 mps 752 mmHg 83%
02:00 +12°C° 0 mm 1 mps 752 mmHg 84%
03:00 +11°C° 0 mm 1 mps 752 mmHg 85%
04:00 +11°C° 0 mm 1 mps 752 mmHg 85%
05:00 +11°C° 0 mm 1 mps 752 mmHg 86%
06:00 +13°C° 0 mm 1 mps 752 mmHg 79%
07:00 +14°C° 0 mm 1 mps 752 mmHg 73%
08:00 +16°C° 0 mm 1 mps 753 mmHg 66%
09:00 +19°C° 0 mm 1 mps 753 mmHg 61%
10:00 +20°C° 0 mm 1 mps 753 mmHg 57%
11:00 +21°C° 0 mm 1 mps 753 mmHg 52%
12:00 +22°C° 0 mm 1 mps 752 mmHg 50%
13:00 +23°C° 0 mm 1 mps 752 mmHg 48%
14:00 +24°C° 0 mm 1 mps 752 mmHg 46%
15:00 +23°C° 0 mm 1 mps 752 mmHg 47%
16:00 +23°C° 0 mm 1 mps 751 mmHg 48%
17:00 +23°C° 0 mm 1 mps 751 mmHg 49%
18:00 +21°C° 0 mm 1 mps 751 mmHg 56%
19:00 +19°C° 0 mm 1 mps 751 mmHg 63%
20:00 +16°C° 0 mm 1 mps 751 mmHg 71%
21:00 +16°C° 0 mm 1 mps 751 mmHg 74%
22:00 +15°C° 0 mm 1 mps 751 mmHg 77%
23:00 +13°C° 0 mm 0 mps 751 mmHg 80%
Show more